TimeCDT,TemperatureF,Dew PointF,Humidity,Sea Level PressureIn,VisibilityMPH,Wind Direction,Wind SpeedMPH,Gust SpeedMPH,PrecipitationIn,Events,Conditions,WindDirDegrees,DateUTC
12:15 AM,78.8,71.6,78,29.78,10.0,Calm,Calm,-,N/A,,Light Drizzle,0,2013-06-01 05:15:00
12:35 AM,78.8,71.6,78,29.79,10.0,Calm,Calm,-,N/A,,Mostly Cloudy,0,2013-06-01 05:35:00
12:55 AM,68.0,62.6,83,29.84,5.0,WNW,19.6,35.7,0.09,Rain-Thunderstorm,Heavy Thunderstorms and Rain,290,2013-06-01 05:55:00
1:15 AM,66.2,64.4,94,29.80,7.0,NNE,3.5,-,0.15,Rain-Thunderstorm,Thunderstorms and Rain,20,2013-06-01 06:15:00
1:35 AM,66.2,66.2,100,29.77,10.0,ESE,5.8,-,0.17,Rain-Thunderstorm,Light Thunderstorms and Rain,110,2013-06-01 06:35:00
1:55 AM,66.2,66.2,100,29.76,10.0,NE,4.6,-,0.18,Rain-Thunderstorm,Light Thunderstorms and Rain,40,2013-06-01 06:55:00
2:15 AM,66.2,64.4,94,29.82,2.5,WNW,13.8,17.3,0.45,Rain-Thunderstorm,Heavy Thunderstorms and Rain,290,2013-06-01 07:15:00
2:35 AM,64.4,64.4,100,29.81,2.0,ESE,8.1,-,0.85,Rain-Thunderstorm,Heavy Thunderstorms and Rain,110,2013-06-01 07:35:00
2:55 AM,64.4,64.4,100,29.75,10.0,East,9.2,-,0.92,Rain-Thunderstorm,Light Thunderstorms and Rain,90,2013-06-01 07:55:00
3:15 AM,64.4,64.4,100,29.85,10.0,West,23.0,35.7,0.03,Rain-Thunderstorm,Thunderstorms and Rain,280,2013-06-01 08:15:00
3:35 AM,64.4,64.4,100,29.79,1.2,ESE,11.5,-,0.52,Rain-Thunderstorm,Heavy Thunderstorms and Rain,120,2013-06-01 08:35:00
3:55 AM,64.4,64.4,100,29.75,10.0,ESE,11.5,-,0.57,Rain-Thunderstorm,Light Thunderstorms and Rain,110,2013-06-01 08:55:00
4:15 AM,64.4,62.6,94,29.75,10.0,SE,8.1,-,0.01,Rain-Thunderstorm,Light Thunderstorms and Rain,140,2013-06-01 09:15:00
4:35 AM,64.4,62.6,94,29.76,10.0,SSE,6.9,-,0.02,Rain-Thunderstorm,Light Thunderstorms and Rain,160,2013-06-01 09:35:00
4:55 AM,66.2,62.6,88,29.78,10.0,Calm,Calm,-,0.02,,Scattered Clouds,0,2013-06-01 09:55:00
5:15 AM,66.2,62.6,88,29.81,10.0,Calm,Calm,-,0.01,Rain-Thunderstorm,Heavy Thunderstorms and Rain,0,2013-06-01 10:15:00
5:35 AM,64.4,64.4,100,29.80,10.0,SSE,4.6,-,0.10,Rain-Thunderstorm,Light Thunderstorms and Rain,150,2013-06-01 10:35:00
5:55 AM,64.4,64.4,100,29.89,10.0,West,15.0,-,0.12,Rain-Thunderstorm,Light Thunderstorms and Rain,270,2013-06-01 10:55:00
6:15 AM,64.4,64.4,100,29.86,3.0,SSE,6.9,-,0.18,Rain-Thunderstorm,Heavy Thunderstorms and Rain,160,2013-06-01 11:15:00
6:35 AM,64.4,64.4,100,29.82,10.0,SSE,10.4,-,0.25,Rain-Thunderstorm,Thunderstorms and Rain,150,2013-06-01 11:35:00
6:55 AM,64.4,64.4,100,29.77,10.0,East,12.7,18.4,0.28,Rain-Thunderstorm,Light Thunderstorms and Rain,100,2013-06-01 11:55:00
7:15 AM,64.4,64.4,100,29.77,10.0,SE,11.5,18.4,N/A,Rain-Thunderstorm,Light Thunderstorms and Rain,130,2013-06-01 12:15:00
7:35 AM,64.4,64.4,100,29.83,10.0,SSW,3.5,-,0.01,Rain-Thunderstorm,Light Thunderstorms and Rain,210,2013-06-01 12:35:00
7:55 AM,64.4,64.4,100,29.84,10.0,Calm,Calm,-,0.01,Thunderstorm,Unknown,0,2013-06-01 12:55:00
8:15 AM,64.4,64.4,100,29.81,10.0,ESE,3.5,-,N/A,Rain-Thunderstorm,Light Thunderstorms and Rain,120,2013-06-01 13:15:00
8:35 AM,64.4,64.4,100,29.87,10.0,West,5.8,-,0.01,Rain,Rain,270,2013-06-01 13:35:00
8:55 AM,64.4,64.4,100,29.86,10.0,NNW,4.6,-,0.01,Rain,Light Rain,330,2013-06-01 13:55:00
9:15 AM,64.4,64.4,100,29.86,10.0,Calm,Calm,-,N/A,,Overcast,0,2013-06-01 14:15:00
9:35 AM,64.4,64.4,100,29.86,10.0,Calm,Calm,-,N/A,Thunderstorm,Overcast,0,2013-06-01 14:35:00
9:55 AM,64.4,64.4,100,29.87,10.0,East,5.8,-,N/A,,Overcast,80,2013-06-01 14:55:00
10:15 AM,64.4,64.4,100,29.86,10.0,East,5.8,-,N/A,,Overcast,100,2013-06-01 15:15:00
10:35 AM,66.2,64.4,94,29.88,10.0,Calm,Calm,-,N/A,,Mostly Cloudy,0,2013-06-01 15:35:00
10:55 AM,66.2,64.4,94,29.90,10.0,Calm,Calm,-,N/A,,Mostly Cloudy,0,2013-06-01 15:55:00
11:15 AM,66.2,64.4,94,29.91,10.0,Calm,Calm,-,N/A,,Overcast,0,2013-06-01 16:15:00
11:35 AM,68.0,66.2,94,29.91,10.0,North,3.5,-,N/A,,Overcast,10,2013-06-01 16:35:00
11:55 AM,68.0,64.4,88,29.91,10.0,Calm,Calm,-,N/A,,Overcast,0,2013-06-01 16:55:00
12:15 PM,68.0,64.4,88,29.91,10.0,Calm,Calm,-,N/A,,Overcast,0,2013-06-01 17:15:00
12:35 PM,69.8,64.4,83,29.92,10.0,Calm,Calm,-,N/A,,Overcast,0,2013-06-01 17:35:00
12:55 PM,69.8,64.4,83,29.92,10.0,NNW,3.5,-,N/A,,Overcast,330,2013-06-01 17:55:00
1:15 PM,69.8,64.4,83,29.92,10.0,NNW,5.8,-,N/A,,Overcast,330,2013-06-01 18:15:00
1:35 PM,71.6,62.6,73,29.92,10.0,WNW,4.6,-,N/A,,Overcast,300,2013-06-01 18:35:00
1:55 PM,71.6,64.4,78,29.92,10.0,WNW,4.6,-,N/A,,Overcast,290,2013-06-01 18:55:00
2:15 PM,73.4,64.4,73,29.92,10.0,NW,6.9,-,N/A,,Mostly Cloudy,310,2013-06-01 19:15:00
2:35 PM,73.4,62.6,69,29.92,10.0,Calm,Calm,-,N/A,,Overcast,0,2013-06-01 19:35:00
2:55 PM,73.4,64.4,73,29.91,10.0,WNW,3.5,-,N/A,,Mostly Cloudy,300,2013-06-01 19:55:00
3:15 PM,73.4,64.4,73,29.90,10.0,Calm,Calm,-,N/A,,Mostly Cloudy,0,2013-06-01 20:15:00
3:35 PM,75.2,64.4,69,29.90,10.0,Calm,Calm,-,N/A,,Scattered Clouds,0,2013-06-01 20:35:00
3:55 PM,77.0,64.4,65,29.90,10.0,West,3.5,-,N/A,,Clear,270,2013-06-01 20:55:00
4:15 PM,77.0,64.4,65,29.90,10.0,Calm,Calm,-,N/A,,Scattered Clouds,0,2013-06-01 21:15:00
4:35 PM,77.0,64.4,65,29.90,10.0,SW,3.5,-,N/A,,Scattered Clouds,230,2013-06-01 21:35:00
4:55 PM,77.0,64.4,65,29.90,10.0,Calm,Calm,-,N/A,,Scattered Clouds,0,2013-06-01 21:55:00
5:15 PM,77.0,66.2,69,29.90,10.0,WSW,4.6,-,N/A,,Clear,240,2013-06-01 22:15:00
5:35 PM,77.0,66.2,69,29.90,10.0,West,3.5,-,N/A,,Clear,260,2013-06-01 22:35:00
5:55 PM,77.0,66.2,69,29.90,10.0,SW,4.6,-,N/A,,Clear,220,2013-06-01 22:55:00
6:15 PM,77.0,66.2,69,29.90,10.0,SW,3.5,-,N/A,,Clear,230,2013-06-01 23:15:00
6:35 PM,77.0,66.2,69,29.90,10.0,Calm,Calm,-,N/A,,Scattered Clouds,0,2013-06-01 23:35:00
6:55 PM,77.0,66.2,69,29.90,10.0,WSW,4.6,-,N/A,,Clear,240,2013-06-01 23:55:00
7:15 PM,75.2,66.2,73,29.90,10.0,Calm,Calm,-,N/A,,Clear,0,2013-06-02 00:15:00
7:35 PM,75.2,66.2,73,29.91,10.0,Calm,Calm,-,N/A,,Scattered Clouds,0,2013-06-02 00:35:00
7:55 PM,77.0,64.4,65,29.91,10.0,NNW,5.8,-,N/A,,Mostly Cloudy,340,2013-06-02 00:55:00
8:15 PM,77.0,62.6,61,29.92,10.0,NNW,4.6,-,N/A,,Mostly Cloudy,330,2013-06-02 01:15:00
8:35 PM,73.4,60.8,65,29.93,10.0,NNW,8.1,-,N/A,,Scattered Clouds,340,2013-06-02 01:35:00
8:55 PM,71.6,60.8,69,29.94,10.0,NNW,6.9,-,N/A,,Clear,340,2013-06-02 01:55:00
9:15 PM,71.6,59.0,64,29.94,10.0,NNW,5.8,-,N/A,,Scattered Clouds,340,2013-06-02 02:15:00
9:35 PM,71.6,59.0,64,29.95,10.0,NNW,5.8,-,N/A,,Clear,340,2013-06-02 02:35:00
9:55 PM,69.8,59.0,68,29.96,10.0,North,3.5,-,N/A,,Clear,350,2013-06-02 02:55:00
10:15 PM,69.8,57.2,64,29.97,10.0,North,5.8,-,N/A,,Clear,350,2013-06-02 03:15:00
10:35 PM,69.8,57.2,64,29.98,10.0,North,8.1,-,N/A,,Clear,350,2013-06-02 03:35:00
10:55 PM,69.8,57.2,64,29.98,10.0,North,4.6,-,N/A,,Clear,350,2013-06-02 03:55:00
11:15 PM,68.0,57.2,68,29.98,10.0,North,4.6,-,N/A,,Clear,350,2013-06-02 04:15:00
11:35 PM,68.0,57.2,68,29.99,10.0,North,4.6,-,N/A,,Clear,350,2013-06-02 04:35:00
11:55 PM,68.0,57.2,68,29.99,10.0,North,5.8,-,N/A,,Clear,350,2013-06-02 04:55:00